"Pseudo-MPEC" for P11JonK

Created 2023 Sep 27 0:22:12 UT using Find_Orb

Click here for an explanation of pseudo-MPECs

 
 Astrometry: 
     P11JonK* C2023 09 13iCdHJ#@!7GCKc3(nl+Z#VPf_SQ3PB8?eBjZbkq/h55Qqn4L3d8rqF51
     P11JonK  C2023 09 13C`GexA*U=t5Ye`BTPW_AstrometryRN_!QsM8?6redacted;/bv1F51
     P11JonK  C2023 09 13MO,1*I,s(KYJY/\?b0$c;RjYj/JSKROJcYsoRUAclickfZus7LRTF51
     P11JonK  C2023 09 13B*D!N-%[X0UJtixCu-dag?7)8N0j]hereRN'-forVexplanationF51

Station data:
(F51) Pan-STARRS 1, Haleakala  (N20.707234 W156.255910)  US/Hawaii.
   Observers J. Bulger, T. Lowe, A. Schultz, M. Willman. Measurers K.
   Chambers, S. Chastel, T. de Boer, L. Denneau, J. Fairlamb, H. Flewelling,
   M. Huber, C.-C. Lin, E. Magnier, Y. Ramanjooloo, R. Wainscoat, R. Weryk.
   1.8-m Ritchey-Chrétien + CCD.

Orbital elements:  P11JonK
   Perihelion 2023 Jul 12.80002 +/- 54.7 TT = 19:12:01 (JD 2460138.30002)
Epoch 2023 Sep 13.0 TT = JDT 2460200.5   Earth MOID: 0.5915   Ju: 0.5492
M   6.69738806 +/- 13               (J2000 ecliptic)             AutoNEOCP
n   0.10767507 +/- 0.166            Peri.  197.34231 +/- 80
a   4.37581801 +/- 4.5              Node   115.52837 +/- 37
e   0.6347226 +/- 0.242             Incl.   17.80326 +/- 5.3
P   9.15                   H 19.90  G  0.15   U 11.5  SR
q 1.59838722 +/- 0.631    Q 7.15324880 +/- 448
From 4 observations 2023 Sept. 13 (42.3 min); mean residual 0".05
Residuals in arcseconds: 
230913 F51  .02-  .02-    230913 F51  .11+  .04+    
230913 F51  .03-  .01+    230913 F51  .07-  .03-    

Ephemerides (geocentric):
Date (UTC) HH   RA             Dec           delta  r     elong  mag " sig PA
---- --------  ------------   ------------  ------ ------ -----  --- --------
2023 09 27 00  00 05 05.748   -35 36 59.39  .88770 1.7931 143.0 21.9  26d 101
2023 09 27 01  00 05 05.206   -35 36 55.95  .88801 1.7933 143.0 21.9  26d 101
2023 09 27 02  00 05 04.666   -35 36 52.44  .88832 1.7935 143.0 21.9  26d 101
2023 09 27 03  00 05 04.126   -35 36 48.88  .88864 1.7937 143.0 21.9  26d 101
2023 09 27 04  00 05 03.586   -35 36 45.27  .88895 1.7939 143.0 21.9  26d 101
2023 09 27 05  00 05 03.048   -35 36 41.60  .88927 1.7941 142.9 21.9  26d 100
2023 09 27 06  00 05 02.510   -35 36 37.87  .88958 1.7942 142.9 21.9  26d  99
2023 09 27 07  00 05 01.973   -35 36 34.08  .88989 1.7944 142.9 21.9  27d  98
2023 09 27 08  00 05 01.436   -35 36 30.24  .89021 1.7946 142.9 21.9  28d  99
2023 09 27 09  00 05 00.900   -35 36 26.35  .89052 1.7948 142.9 21.9  29d 101
2023 09 27 10  00 05 00.365   -35 36 22.39  .89084 1.7950 142.9 21.9  29d 102
2023 09 27 11  00 04 59.831   -35 36 18.39  .89116 1.7952 142.8 21.9  30d 103
2023 09 27 12  00 04 59.297   -35 36 14.32  .89147 1.7954 142.8 21.9  30d 104
2023 09 27 13  00 04 58.764   -35 36 10.20  .89179 1.7956 142.8 21.9  30d 104
2023 09 27 14  00 04 58.232   -35 36 06.02  .89210 1.7958 142.8 21.9  30d 104
2023 09 27 15  00 04 57.700   -35 36 01.79  .89242 1.7960 142.8 21.9  30d 104
2023 09 27 16  00 04 57.170   -35 35 57.50  .89274 1.7962 142.8 21.9  30d 105
2023 09 27 17  00 04 56.640   -35 35 53.16  .89306 1.7964 142.7 21.9  30d 105
2023 09 27 18  00 04 56.110   -35 35 48.76  .89337 1.7966 142.7 21.9  30d 105
2023 09 27 19  00 04 55.582   -35 35 44.31  .89369 1.7968 142.7 21.9  30d 105
2023 09 27 20  00 04 55.054   -35 35 39.80  .89401 1.7970 142.7 21.9  30d 105
2023 09 27 21  00 04 54.527   -35 35 35.23  .89433 1.7972 142.7 21.9  30d 105
2023 09 27 22  00 04 54.001   -35 35 30.61  .89465 1.7974 142.7 21.9  30d 105
2023 09 27 23  00 04 53.476   -35 35 25.93  .89496 1.7976 142.6 21.9  30d 105
2023 09 28 00  00 04 52.951   -35 35 21.20  .89528 1.7978 142.6 21.9  30d 105
2023 09 28 01  00 04 52.427   -35 35 16.41  .89560 1.7980 142.6 21.9  30d 105
2023 09 28 02  00 04 51.904   -35 35 11.57  .89592 1.7982 142.6 21.9  30d 105
2023 09 28 03  00 04 51.382   -35 35 06.67  .89624 1.7984 142.6 21.9  30d 105
2023 09 28 04  00 04 50.860   -35 35 01.72  .89656 1.7986 142.5 21.9  30d 105
2023 09 28 05  00 04 50.340   -35 34 56.71  .89688 1.7988 142.5 21.9  30d 105
2023 09 28 06  00 04 49.820   -35 34 51.64  .89720 1.7990 142.5 21.9  30d 105
2023 09 28 07  00 04 49.301   -35 34 46.53  .89752 1.7992 142.5 21.9  30d 105
2023 09 28 08  00 04 48.782   -35 34 41.35  .89784 1.7994 142.5 21.9  30d 105
2023 09 28 09  00 04 48.265   -35 34 36.12  .89817 1.7996 142.5 21.9  30d 105
2023 09 28 10  00 04 47.748   -35 34 30.84  .89849 1.7998 142.4 21.9  30d 105
2023 09 28 11  00 04 47.233   -35 34 25.50  .89881 1.8000 142.4 21.9  30d 105
2023 09 28 12  00 04 46.718   -35 34 20.10  .89913 1.8002 142.4 21.9  30d 105
2023 09 28 13  00 04 46.204   -35 34 14.66  .89945 1.8003 142.4 21.9  30d 105
2023 09 28 14  00 04 45.691   -35 34 09.15  .89978 1.8005 142.4 21.9  30d 105
2023 09 28 15  00 04 45.178   -35 34 03.59  .90010 1.8007 142.4 21.9  30d 105
2023 09 28 16  00 04 44.667   -35 33 57.98  .90042 1.8009 142.3 21.9  30d 105
2023 09 28 17  00 04 44.156   -35 33 52.31  .90074 1.8011 142.3 21.9  30d 105
2023 09 28 18  00 04 43.646   -35 33 46.59  .90107 1.8013 142.3 21.9  30d 105
2023 09 28 19  00 04 43.137   -35 33 40.81  .90139 1.8015 142.3 21.9  30d 105
2023 09 28 20  00 04 42.629   -35 33 34.98  .90172 1.8017 142.3 22.0  30d 105
2023 09 28 21  00 04 42.122   -35 33 29.09  .90204 1.8019 142.2 22.0  30d 105
2023 09 28 22  00 04 41.616   -35 33 23.15  .90237 1.8021 142.2 22.0  30d 105
2023 09 28 23  00 04 41.110   -35 33 17.16  .90269 1.8023 142.2 22.0  30d 105